User: anonymous   Login
Location: Mentone
(34.5413°N, 85.5351°W)
Time: 13:04:34
(UTC-05:00)
Language:

AO-Echo - Orbit

View from above orbital plane
View from above orbital plane
View from above satellite
View from above satellite

Ground track
Ground track

The orbit data is extracted from the following two-line orbital elements,

1 28375U 04025K   16125.89044747  .00000072  00000-0  34106-4 0  9991
2 28375  98.3260  62.6693 0083888  75.4653 285.5824 14.41774010622993
Epoch (UTC): 04 May 2016 21:22:14
Eccentricity: 0.0083888
inclination: 98.3260°
perigee height: 693 km
apogee height: 812 km
right ascension of ascending node: 62.6693°
argument of perigee: 75.4653°
revolutions per day: 14.41774010
mean anomaly at epoch: 285.5824°
orbit number at epoch: 62299

The dashed part of the orbit path shows where the satellite is in the earth's shadow,  

DLR